Hourly Data Report for July 01, 2022

ALGONQUIN PARK EAST GATE
ONTARIO
Current Station Operator: ECCC - MSC

45°32'00.000" N
78°16'00.000" W
397.00 m
6080192
71581
TNK

Download Data

Hourly Data (July 2022)
Hourly Data Report for July 1, 2022
TIME
LST
Temp Definition
°C
Dew Point Definition
°C
Rel Hum Definition
%
Precip. Amount Definition
mm

Wind Dir Definition
10's deg

Wind Spd Definition
km/h
Visibility Definition
km
Stn Press Definition
kPa
Hmdx Definition


Wind Chill Definition


Weather Definition


00:00 20.3 14.3 68 0.0 23 3   96.66     LegendNANA
01:00 20.4 13.8 66 0.0 23 4   96.58     LegendNANA
02:00 20.0 13.1 65 0.0 23 4   96.49     LegendNANA
03:00 19.7 13.4 67 0.0 23 3   96.43     LegendNANA
04:00 18.3 14.5 79 0.0 35 1   96.43     LegendNANA
05:00 16.6 15.8 95 0.5   0   96.51     LegendNANA
06:00 16.6 15.9 96 0.2 0 1   96.65     LegendNANA
07:00 16.4 15.9 97 1.4 28 1   96.62     LegendNANA
08:00 17.1 15.9 92 1.6 23 3   96.40     LegendNANA
09:00 18.6 17.0 90 0.0 18 1   96.40     LegendNANA
10:00 19.5 17.2 86 0.0 25 4   96.41     LegendNANA
11:00 19.9 17.2 84 0.0 26 8   96.46     LegendNANA
12:00 21.5 16.3 72 0.0 26 8   96.44 26   LegendNANA
13:00 23.3 17.2 69 0.0 24 6   96.36 29   LegendNANA
14:00 22.1 16.7 71 0.0 25 9   96.38 27   LegendNANA
15:00 22.3 17.4 74 0.0 27 8   96.35 28   LegendNANA
16:00 22.0 18.0 78 0.0 27 6   96.31 28   LegendNANA
17:00 21.6 17.2 76 0.0 27 9   96.30 27   LegendNANA
18:00 21.5 17.9 80 0.0 27 4   96.28 27   LegendNANA
19:00 20.8 17.0 79 0.0 27 5   96.26 26   LegendNANA
20:00 19.4 16.7 84 0.0 28 2   96.23     LegendNANA
21:00 18.1 15.2 83 0.0 28 5   96.31     LegendNANA
22:00 17.4 13.5 78 0.0 26 7   96.29     LegendNANA
23:00 15.7 12.0 79 0.0 26 4   96.28     LegendNANA

Notes on Data Quality.

Legend

  • E = Estimated
  • M = Missing
  • NA = Not Available*
  • [empty] = Indicates an unobserved value
Date modified: